SAS225 ESGG-ESSA

Flight info

Callsign SAS225
Flight time 0h 44m
Altitude 29000
Route LABAN N873 ARS T317 ELTOK
Aircraft A320/M-SDE3FGHIRWY/LB1

Departure

Time 2026-05-07 17:21
Airport Göteborg Landvetter Airport (ESGG)

Arrival

Time 2026-05-07 18:05
Airport Stockholm-Arlanda Airport (ESSA)
Time Latitude Longitude Altitude Speed Heading
2026-05-07 16:53 57.67049 12.29561 516 ft 0 kts 116°
2026-05-07 17:12 57.67057 12.29532 516 ft 4 kts 116°
2026-05-07 17:13 57.67066 12.29486 516 ft 4 kts 96°
2026-05-07 17:13 57.67063 12.29440 516 ft 4 kts 55°
2026-05-07 17:13 57.67050 12.29417 516 ft 1 kts 26°
2026-05-07 17:13 57.67047 12.29414 516 ft 0 kts 26°
2026-05-07 17:15 57.67074 12.29438 516 ft 8 kts 26°
2026-05-07 17:16 57.67129 12.29488 516 ft 10 kts 26°
2026-05-07 17:16 57.67195 12.29518 516 ft 10 kts 334°
2026-05-07 17:16 57.67240 12.29413 516 ft 11 kts 328°
2026-05-07 17:16 57.67318 12.29439 516 ft 13 kts 26°
2026-05-07 17:17 57.67403 12.29470 516 ft 13 kts 329°
2026-05-07 17:17 57.67447 12.29344 516 ft 10 kts 297°
2026-05-07 17:17 57.67459 12.29265 515 ft 0 kts 266°
2026-05-07 17:19 57.67456 12.29188 515 ft 14 kts 265°
2026-05-07 17:19 57.67417 12.29023 515 ft 15 kts 224°
2026-05-07 17:20 57.67390 12.28990 515 ft 0 kts 207°
2026-05-07 17:20 57.67389 12.28990 515 ft 1 kts 207°
2026-05-07 17:21 57.67271 12.28876 515 ft 54 kts 207°
2026-05-07 17:21 57.66693 12.28350 513 ft 128 kts 206°
2026-05-07 17:21 57.65726 12.27469 642 ft 172 kts 210°
2026-05-07 17:21 57.64622 12.26483 1372 ft 177 kts 209°
2026-05-07 17:22 57.63503 12.25468 2138 ft 187 kts 208°
2026-05-07 17:22 57.62186 12.24990 2464 ft 211 kts 174°
2026-05-07 17:22 57.60726 12.25771 2876 ft 221 kts 159°
2026-05-07 17:22 57.59312 12.26906 3489 ft 222 kts 155°
2026-05-07 17:23 57.57931 12.28156 4234 ft 220 kts 147°
2026-05-07 17:23 57.56962 12.30298 4990 ft 219 kts 112°
2026-05-07 17:23 57.56783 12.33147 5483 ft 234 kts 79°
2026-05-07 17:23 57.57347 12.36109 5844 ft 251 kts 68°
2026-05-07 17:24 57.58030 12.39243 6349 ft 267 kts 69°
2026-05-07 17:24 57.58738 12.42489 7085 ft 273 kts 68°
2026-05-07 17:24 57.59455 12.45805 7828 ft 279 kts 68°
2026-05-07 17:24 57.60182 12.49202 8596 ft 284 kts 68°
2026-05-07 17:25 57.60919 12.52669 9333 ft 290 kts 68°
2026-05-07 17:25 57.61727 12.56138 10096 ft 294 kts 59°
2026-05-07 17:25 57.62922 12.59187 10732 ft 299 kts 45°
2026-05-07 17:25 57.64578 12.61729 10931 ft 320 kts 32°
2026-05-07 17:26 57.66490 12.64116 11149 ft 339 kts 32°
2026-05-07 17:26 57.68473 12.66601 11692 ft 346 kts 32°
2026-05-07 17:26 57.70481 12.69141 12364 ft 350 kts 32°
2026-05-07 17:26 57.72508 12.71722 13054 ft 354 kts 32°
2026-05-07 17:27 57.74555 12.74335 13736 ft 357 kts 32°
2026-05-07 17:27 57.76619 12.76973 14364 ft 361 kts 32°
2026-05-07 17:27 57.78702 12.79641 14965 ft 364 kts 32°
2026-05-07 17:27 57.80804 12.82338 15561 ft 368 kts 32°
2026-05-07 17:28 57.82921 12.85066 16176 ft 371 kts 32°
2026-05-07 17:28 57.85067 12.87838 16756 ft 375 kts 32°
2026-05-07 17:28 57.87229 12.90633 17329 ft 379 kts 32°
2026-05-07 17:28 57.89412 12.93460 17904 ft 383 kts 32°
2026-05-07 17:29 57.91613 12.96312 18467 ft 386 kts 32°
2026-05-07 17:29 57.93841 12.99195 18955 ft 390 kts 32°
2026-05-07 17:29 57.96084 13.02101 19445 ft 393 kts 32°
2026-05-07 17:29 57.98344 13.05034 19929 ft 396 kts 31°
2026-05-07 17:30 58.00620 13.07993 20405 ft 399 kts 31°
2026-05-07 17:30 58.02883 13.10947 20875 ft 402 kts 31°
2026-05-07 17:30 58.05192 13.13970 21074 ft 404 kts 31°
2026-05-07 17:30 58.07503 13.17003 21112 ft 404 kts 31°
2026-05-07 17:31 58.09813 13.20032 21113 ft 404 kts 31°
2026-05-07 17:31 58.12117 13.23065 21112 ft 404 kts 32°
2026-05-07 17:31 58.14417 13.26095 21112 ft 404 kts 32°
2026-05-07 17:31 58.16669 13.29298 21110 ft 406 kts 38°
2026-05-07 17:32 58.18643 13.33140 21116 ft 409 kts 47°
2026-05-07 17:32 58.20488 13.37249 21114 ft 409 kts 47°
2026-05-07 17:32 58.22325 13.41349 21114 ft 409 kts 47°
2026-05-07 17:32 58.24170 13.45460 21114 ft 409 kts 47°
2026-05-07 17:33 58.26020 13.49571 21112 ft 409 kts 47°
2026-05-07 17:33 58.27866 13.53673 21114 ft 409 kts 47°
2026-05-07 17:33 58.29720 13.57799 21114 ft 409 kts 47°
2026-05-07 17:33 58.31566 13.61914 21129 ft 410 kts 46°
2026-05-07 17:34 58.33416 13.66048 21115 ft 411 kts 46°
2026-05-07 17:34 58.35267 13.70202 21117 ft 411 kts 46°
2026-05-07 17:34 58.37115 13.74359 21117 ft 411 kts 46°
2026-05-07 17:34 58.38939 13.78468 21117 ft 411 kts 46°
2026-05-07 17:35 58.40787 13.82634 21116 ft 411 kts 47°
2026-05-07 17:35 58.42633 13.86808 21117 ft 411 kts 47°
2026-05-07 17:35 58.44475 13.90981 21117 ft 411 kts 47°
2026-05-07 17:35 58.46318 13.95158 21116 ft 411 kts 47°
2026-05-07 17:36 58.48156 13.99330 21120 ft 411 kts 47°
2026-05-07 17:36 58.49994 14.03509 21119 ft 411 kts 47°
2026-05-07 17:36 58.51831 14.07701 21115 ft 411 kts 47°
2026-05-07 17:36 58.53664 14.11895 21115 ft 411 kts 47°
2026-05-07 17:37 58.55499 14.16095 21116 ft 412 kts 47°
2026-05-07 17:37 58.57338 14.20309 21112 ft 413 kts 47°
2026-05-07 17:37 58.59186 14.24550 21113 ft 413 kts 47°
2026-05-07 17:37 58.61023 14.28766 21112 ft 413 kts 47°
2026-05-07 17:38 58.62863 14.33000 21112 ft 413 kts 47°
2026-05-07 17:38 58.64701 14.37241 21113 ft 413 kts 47°
2026-05-07 17:38 58.66534 14.41478 21113 ft 413 kts 47°
2026-05-07 17:38 58.68367 14.45722 21112 ft 413 kts 47°
2026-05-07 17:39 58.70177 14.49924 21116 ft 413 kts 47°
2026-05-07 17:39 58.72012 14.54192 21111 ft 413 kts 47°
2026-05-07 17:39 58.73842 14.58454 21111 ft 413 kts 47°
2026-05-07 17:39 58.75669 14.62718 21111 ft 413 kts 47°
2026-05-07 17:40 58.77497 14.66990 21124 ft 413 kts 47°
2026-05-07 17:40 58.79327 14.71274 21107 ft 414 kts 47°
2026-05-07 17:40 58.81155 14.75570 21109 ft 415 kts 47°
2026-05-07 17:40 58.82984 14.79883 21108 ft 415 kts 47°
2026-05-07 17:41 58.84812 14.84194 21105 ft 415 kts 47°
2026-05-07 17:41 58.86641 14.88511 21106 ft 415 kts 47°
2026-05-07 17:41 58.88470 14.92825 21106 ft 415 kts 47°
2026-05-07 17:41 58.90302 14.97145 21106 ft 415 kts 47°
2026-05-07 17:42 58.92128 15.01468 21109 ft 415 kts 47°
2026-05-07 17:42 58.93951 15.05803 21109 ft 415 kts 47°
2026-05-07 17:42 58.95768 15.10134 21105 ft 415 kts 47°
2026-05-07 17:42 58.97590 15.14484 21106 ft 415 kts 47°
2026-05-07 17:43 58.99408 15.18834 21099 ft 415 kts 47°
2026-05-07 17:43 59.01226 15.23194 21099 ft 416 kts 47°
2026-05-07 17:43 59.03046 15.27566 21100 ft 416 kts 47°
2026-05-07 17:43 59.04864 15.31937 21101 ft 416 kts 47°
2026-05-07 17:44 59.06684 15.36318 21093 ft 416 kts 47°
2026-05-07 17:44 59.08503 15.40701 21094 ft 416 kts 47°
2026-05-07 17:44 59.10321 15.45086 21095 ft 416 kts 47°
2026-05-07 17:44 59.12119 15.49433 21095 ft 415 kts 47°
2026-05-07 17:45 59.13897 15.53755 20880 ft 403 kts 47°
2026-05-07 17:45 59.15621 15.57958 20620 ft 394 kts 47°
2026-05-07 17:45 59.17322 15.62120 20364 ft 391 kts 47°
2026-05-07 17:45 59.19012 15.66253 20119 ft 389 kts 47°
2026-05-07 17:46 59.20699 15.70377 19868 ft 387 kts 47°
2026-05-07 17:46 59.22376 15.74472 19653 ft 386 kts 47°
2026-05-07 17:46 59.24051 15.78559 19407 ft 385 kts 47°
2026-05-07 17:46 59.25721 15.82646 19162 ft 384 kts 47°
2026-05-07 17:47 59.27381 15.86729 18916 ft 383 kts 47°
2026-05-07 17:47 59.29032 15.90803 18670 ft 381 kts 47°
2026-05-07 17:47 59.30669 15.94859 18441 ft 380 kts 47°
2026-05-07 17:47 59.32301 15.98911 18176 ft 378 kts 47°
2026-05-07 17:48 59.33927 16.02950 17897 ft 376 kts 47°
2026-05-07 17:48 59.35541 16.06965 17623 ft 374 kts 47°
2026-05-07 17:48 59.37142 16.10949 17352 ft 372 kts 47°
2026-05-07 17:48 59.38719 16.14879 17083 ft 369 kts 47°
2026-05-07 17:49 59.40303 16.18834 16821 ft 367 kts 47°
2026-05-07 17:49 59.41875 16.22768 16557 ft 365 kts 47°
2026-05-07 17:49 59.43437 16.26677 16295 ft 363 kts 47°
2026-05-07 17:49 59.44996 16.30585 16058 ft 361 kts 47°
2026-05-07 17:50 59.46543 16.34470 15798 ft 359 kts 47°
2026-05-07 17:50 59.48079 16.38334 15542 ft 357 kts 47°
2026-05-07 17:50 59.49605 16.42176 15288 ft 355 kts 48°
2026-05-07 17:50 59.51126 16.46005 15026 ft 353 kts 47°
2026-05-07 17:51 59.52631 16.49813 14780 ft 352 kts 50°
2026-05-07 17:51 59.54019 16.53790 14438 ft 350 kts 52°
2026-05-07 17:51 59.55361 16.57771 14096 ft 348 kts 52°
2026-05-07 17:51 59.56690 16.61725 13737 ft 345 kts 52°
2026-05-07 17:52 59.57567 16.64329 13481 ft 343 kts 52°
2026-05-07 17:52 59.58884 16.68232 13095 ft 341 kts 52°
2026-05-07 17:52 59.60198 16.72116 12717 ft 339 kts 52°
2026-05-07 17:52 59.61506 16.75969 12347 ft 337 kts 52°
2026-05-07 17:53 59.62808 16.79792 11977 ft 334 kts 52°
2026-05-07 17:53 59.64107 16.83593 11616 ft 332 kts 52°
2026-05-07 17:53 59.65402 16.87366 11256 ft 330 kts 52°
2026-05-07 17:53 59.66694 16.91108 10905 ft 328 kts 53°
2026-05-07 17:54 59.68000 16.94799 10545 ft 326 kts 52°
2026-05-07 17:54 59.69307 16.98451 10065 ft 324 kts 52°
2026-05-07 17:54 59.70613 17.02065 9525 ft 322 kts 52°
2026-05-07 17:54 59.71918 17.05650 8978 ft 319 kts 52°
2026-05-07 17:55 59.73220 17.09200 8439 ft 317 kts 52°
2026-05-07 17:55 59.74507 17.12688 8129 ft 307 kts 52°
2026-05-07 17:55 59.75657 17.16127 8096 ft 290 kts 65°
2026-05-07 17:55 59.76229 17.19904 8113 ft 285 kts 76°
2026-05-07 17:56 59.76651 17.23746 8112 ft 284 kts 77°
2026-05-07 17:56 59.77057 17.27582 8111 ft 284 kts 77°
2026-05-07 17:56 59.77457 17.31381 8118 ft 284 kts 77°
2026-05-07 17:56 59.77857 17.35256 7705 ft 288 kts 78°
2026-05-07 17:57 59.78258 17.39137 6949 ft 284 kts 78°
2026-05-07 17:57 59.78527 17.41717 6432 ft 281 kts 78°
2026-05-07 17:57 59.79049 17.46703 5416 ft 274 kts 78°
2026-05-07 17:57 59.79422 17.50271 5170 ft 252 kts 78°
2026-05-07 17:58 59.79775 17.53640 5028 ft 250 kts 78°
2026-05-07 17:58 59.80128 17.57016 4763 ft 248 kts 77°
2026-05-07 17:58 59.80478 17.60376 4493 ft 248 kts 78°
2026-05-07 17:58 59.80831 17.63735 4107 ft 252 kts 78°
2026-05-07 17:59 59.81199 17.67200 3419 ft 257 kts 79°
2026-05-07 17:59 59.81322 17.70711 2751 ft 253 kts 91°
2026-05-07 17:59 59.81274 17.74070 2525 ft 234 kts 92°
2026-05-07 17:59 59.81211 17.77321 2474 ft 234 kts 93°
2026-05-07 18:00 59.81148 17.80539 2488 ft 233 kts 92°
2026-05-07 18:00 59.81089 17.83759 2494 ft 232 kts 92°
2026-05-07 18:00 59.81032 17.86905 2490 ft 221 kts 93°
2026-05-07 18:00 59.80976 17.89924 2503 ft 216 kts 93°
2026-05-07 18:01 59.80920 17.92883 2527 ft 214 kts 92°
2026-05-07 18:01 59.80866 17.95824 2502 ft 213 kts 93°
2026-05-07 18:01 59.80497 17.98628 2495 ft 212 kts 121°
2026-05-07 18:01 59.79389 18.00491 2501 ft 213 kts 158°
2026-05-07 18:02 59.76477 18.00143 2427 ft 205 kts 190°
2026-05-07 18:02 59.75160 17.99639 2208 ft 182 kts 190°
2026-05-07 18:02 59.73984 17.99204 1992 ft 164 kts 190°
2026-05-07 18:03 59.72920 17.98814 1780 ft 147 kts 189°
2026-05-07 18:03 59.71944 17.98458 1577 ft 139 kts 189°
2026-05-07 18:03 59.71001 17.98114 1392 ft 137 kts 189°
2026-05-07 18:03 59.70067 17.97774 1198 ft 136 kts 189°
2026-05-07 18:04 59.69132 17.97434 1012 ft 137 kts 188°
2026-05-07 18:04 59.68194 17.97092 819 ft 138 kts 188°
2026-05-07 18:04 59.67250 17.96749 634 ft 138 kts 186°
2026-05-07 18:04 59.66304 17.96405 437 ft 138 kts 186°
2026-05-07 18:05 59.65355 17.96071 253 ft 138 kts 186°
2026-05-07 18:05 59.64415 17.95735 114 ft 133 kts 187°
2026-05-07 18:05 59.63634 17.95453 118 ft 91 kts 192°
2026-05-07 18:05 59.63226 17.95260 128 ft 46 kts 192°
2026-05-07 18:06 59.62987 17.95117 136 ft 27 kts 214°
2026-05-07 18:06 59.62875 17.94936 137 ft 0 kts 220°
2026-05-07 18:06 59.62869 17.94926 137 ft 6 kts 220°
2026-05-07 18:06 59.62892 17.94767 137 ft 18 kts 354°
2026-05-07 18:07 59.63027 17.94809 133 ft 22 kts 10°
2026-05-07 18:07 59.63190 17.94867 126 ft 26 kts 11°
2026-05-07 18:07 59.63379 17.94934 120 ft 29 kts 10°
2026-05-07 18:07 59.63593 17.95012 115 ft 33 kts 10°
2026-05-07 18:08 59.63827 17.95098 110 ft 35 kts 10°
2026-05-07 18:08 59.64070 17.95189 108 ft 36 kts 11°
2026-05-07 18:08 59.64322 17.95282 106 ft 37 kts
2026-05-07 18:08 59.64575 17.95379 105 ft 38 kts 12°
2026-05-07 18:09 59.64834 17.95473 107 ft 38 kts
2026-05-07 18:09 59.65084 17.95491 114 ft 35 kts 342°
2026-05-07 18:09 59.65308 17.95372 124 ft 32 kts 346°
2026-05-07 18:09 59.65524 17.95262 126 ft 32 kts 345°
2026-05-07 18:10 59.65698 17.95165 129 ft 23 kts 339°
2026-05-07 18:10 59.65739 17.94936 125 ft 18 kts 255°
2026-05-07 18:10 59.65707 17.94681 125 ft 20 kts 257°
2026-05-07 18:10 59.65673 17.94408 123 ft 21 kts 254°
2026-05-07 18:11 59.65634 17.94111 122 ft 24 kts 256°
2026-05-07 18:11 59.65605 17.93881 115 ft 28 kts 256°
2026-05-07 18:11 59.65550 17.93455 112 ft 24 kts 255°
2026-05-07 18:11 59.65529 17.93360 112 ft 6 kts 221°
2026-05-07 18:12 59.65482 17.93339 112 ft 8 kts 177°
2026-05-07 18:12 59.65418 17.93362 112 ft 10 kts 166°
2026-05-07 18:12 59.65356 17.93311 112 ft 11 kts 241°
2026-05-07 18:12 59.65343 17.93224 110 ft 5 kts 265°
2026-05-07 18:13 59.65335 17.93165 112 ft 2 kts 251°
2026-05-07 18:13 59.65332 17.93148 112 ft 0 kts 251°
2026-05-07 18:13 59.65332 17.93146 112 ft 0 kts 251°